This is the latest recevied weather packets stored in our database for station/object N9CQL. If no packets are shown the sender has not sent any weather packets the latest 1 day(s).
| Time | Temp. | Humidity | Pressure | Rain* | Wind** | Luminosity | Snow |
|---|---|---|---|---|---|---|---|
| 1778032933 | 11.67° C | 49% | 1008.5 hPa | 0 mm | - | 0 W/m² | - |
| 1778032630 | 11.67° C | 46% | 1008.2 hPa | 0 mm | - | 0 W/m² | - |
| 1778031720 | 11.67° C | 48% | 1007.9 hPa | 0 mm | - | 0 W/m² | - |
| 1778031418 | 11.67° C | 47% | 1007.8 hPa | 0 mm | - | 0 W/m² | - |
| 1778031115 | 11.67° C | 49% | 1007.9 hPa | 0 mm | - | 0 W/m² | - |
| 1778030811 | 11.67° C | 46% | 1007.6 hPa | 0 mm | - | 0 W/m² | - |
| 1778030508 | 12.22° C | 46% | 1007.6 hPa | 0 mm | - | 0 W/m² | - |
| 1778030206 | 12.22° C | 45% | 1007.6 hPa | 0 mm | - | 0 W/m² | - |
| 1778029297 | 12.78° C | 42% | 1007.4 hPa | 0 mm | - | 0 W/m² | - |
| 1778028994 | 12.78° C | 42% | 1007.3 hPa | 0 mm | - | 0 W/m² | - |
| 1778028691 | 12.78° C | 41% | 1007.3 hPa | 0 mm | - | 0 W/m² | - |
| 1778028387 | 12.78° C | 42% | 1007.3 hPa | 0 mm | - | 0 W/m² | - |
| 1778027477 | 12.78° C | 41% | 1007.1 hPa | 0 mm | - | 3 W/m² | - |
| 1778027173 | 12.78° C | 42% | 1007.2 hPa | 0 mm | - | 4 W/m² | - |
| 1778026869 | 12.78° C | 40% | 1007.2 hPa | 0 mm | - | 6 W/m² | - |
| 1778026565 | 12.78° C | 40% | 1007.3 hPa | 0 mm | - | 8 W/m² | - |
| 1778025960 | 12.78° C | 39% | 1007.4 hPa | 0 mm | - | 11 W/m² | - |
| 1778025355 | 12.78° C | 42% | 1007.1 hPa | 0 mm | - | 16 W/m² | - |
| 1778024749 | 13.33° C | 39% | 1007 hPa | 0 mm | - | 18 W/m² | - |
| 1778022631 | 13.89° C | 38% | 1007.2 hPa | 0 mm | - | 80 W/m² | - |
| 1778022328 | 13.89° C | 41% | 1007.1 hPa | 0 mm | - | 79 W/m² | - |
| 1778021721 | 13.89° C | 42% | 1007.1 hPa | 0 mm | - | 106 W/m² | - |
| 1778018084 | 13.89° C | 36% | 1007.7 hPa | 0 mm | - | 127 W/m² | - |
* Rain latest hour (hover to see other rain measurements)
** Current wind speed in m/s (hover to see current wind gust speed)